C/2019 Y1 ( ATLAS )

Japanese version
Home page
Updated on January 7, 2020

---------------------------------------------------------------------

* Profile

Discovery Date December 16, 2019
Magnitude 17.9 mag
Discoverer Asteroid Terrestrial-Impact Last Alert System (ATLAS) search program

* Orbital Elements

T 2020 Mar. 15.54689 TT                                 Rudenko                 
q   0.8416969            (2000.0)            P               Q                  
                   Peri.   57.20588     +0.33833505     -0.79877647             
                   Node    31.27131     +0.12572458     -0.48554704             
e   1.0            Incl.   73.40868     +0.93258926     +0.35524672             
From 125 observations 2019 Dec. 16-2020 Jan. 5.                                 

* Finding Charts

* Magnitudes Graph

        m1 = 12.0 + 5 log d + 10.0 log r

---------------------------------------------------------------------

The orbital elements are published on M.P.E.C. 2020-A72.
The charts are made with StellaNavigator Ver.10 (AstroArts).
The magnitudes graphs are made with Comet for Windows.

---------------------------------------------------------------------

Copyright(C) Seiichi Yoshida (comet@aerith.net). All rights reserved.